Location: Goettingen
(51.5300°N, 9.9433°E)
Time: 14:27:49
(UTC+01:00)

ISS - Pass Details

Date: 23 November 2023
Orbit: 416 x 417 km, 51.6° (Epoch: 02 December)

Event Time Altitude Azimuth Distance (km) Brightness Sun altitude
Rises 18:13:56 0° 254° (WSW) 2,357 1.8 -16.9°
Reaches altitude 10° 18:16:02 10° 252° (WSW) 1,496 0.3 -17.3°
Maximum altitude 18:19:23 77° 167° (SSE) 434 -3.8 -17.8°
Enters shadow 18:19:58 57° 98° (E) 501 -3.8 -17.9°
